WA4FG Weather Reports


Display with metric or nautical units.
time (UTC)temp
F
wind
direction
speed
MPH
gust
MPH
rain 1hr
in
rain 24hr
in
rain mn
in
humidity
%
barometer
mb
20260503021425 56 159 0.0 0.0 0.00 0.01 0.01 66 1017.2
20260503020423 56 159 0.0 0.0 0.00 0.02 0.01 65 1017.1
20260503015916 57 159 0.0 0.0 0.00 0.02 0.01 64 1017.0
20260503015416 57 159 0.0 0.0 0.00 0.02 0.01 64 1017.0
20260503014915 57 159 0.0 0.0 0.00 0.02 0.01 63 1016.9
20260503013858 58 159 0.0 0.0 0.00 0.02 0.01 61 1016.7
20260503013333 58 159 0.0 0.0 0.00 0.02 0.01 59 1016.7
20260503012822 59 159 0.0 0.0 0.00 0.03 0.01 59 1016.6
20260503012320 59 159 0.0 0.0 0.00 0.03 0.01 56 1016.5
20260503011830 59 159 0.0 0.0 0.00 0.03 0.01 56 1016.4
20260503011315 60 159 0.0 0.0 0.00 0.04 0.01 54 1016.4
20260503010814 60 159 0.0 0.0 0.00 0.04 0.01 52 1016.4
20260503010255 60 159 0.0 0.0 0.00 0.04 0.01 51 1016.3
20260503005754 61 159 0.0 0.0 0.00 0.04 0.01 50 1016.3
20260503005245 61 159 0.0 0.0 0.00 0.04 0.01 49 1016.2
20260503004223 62 159 0.0 0.0 0.00 0.04 0.01 46 1016.1
20260503003724 62 159 0.0 0.0 0.00 0.04 0.01 44 1016.1
20260503003220 63 159 0.0 0.0 0.00 0.04 0.01 44 1015.9
20260503002718 63 159 0.0 0.0 0.00 0.04 0.01 46 1015.8
20260503002214 63 159 0.0 0.0 0.00 0.04 0.01 44 1015.7
20260503001714 63 159 0.0 0.0 0.00 0.04 0.01 43 1015.7
20260503001152 64 159 0.0 0.0 0.00 0.04 0.01 42 1015.6
20260503000647 64 159 0.0 0.0 0.00 0.04 0.01 44 1015.6
20260503000147 64 159 0.0 0.0 0.00 0.04 0.01 43 1015.5
20260502235629 64 159 0.0 0.0 0.00 0.04 0.01 47 1015.4
20260502235134 64 159 0.0 0.0 0.00 0.04 0.01 44 1015.4
20260502234548 65 159 0.0 0.0 0.00 0.04 0.01 48 1015.3
20260502233516 65 159 0.0 0.0 0.00 0.04 0.01 46 1015.2
20260502232423 65 159 0.0 1.0 0.00 0.04 0.01 40 1015.2
20260502231913 65 159 0.0 1.0 0.00 0.04 0.01 39 1015.1
20260502231410 66 159 0.0 0.0 0.00 0.04 0.01 48 1015.1
20260502230908 66 159 0.0 0.0 0.00 0.04 0.01 47 1015.1
20260502230404 67 159 0.0 0.0 0.00 0.04 0.01 46 1015.1
20260502225904 67 159 0.0 4.0 0.00 0.04 0.01 46 1015.1
20260502224906 67 157 0.0 4.0 0.00 0.04 0.01 40 1015.1
20260502224344 67 157 0.0 4.0 0.00 0.04 0.01 39 1015.1
20260502223339 67 161 0.0 1.0 0.00 0.04 0.01 39 1015.1
20260502222840 67 161 0.0 0.0 0.00 0.04 0.01 38 1015.1
20260502222328 67 160 0.0 0.0 0.00 0.04 0.01 40 1015.1
20260502221808 67 160 0.0 4.0 0.00 0.04 0.01 41 1015.1
20260502220733 68 157 0.0 1.0 0.00 0.04 0.01 41 1015.0
20260502215708 68 155 0.0 4.0 0.00 0.04 0.01 38 1014.9
20260502215145 68 154 0.0 4.0 0.00 0.04 0.01 38 1014.8
20260502214647 68 82 0.0 0.0 0.00 0.04 0.01 37 1014.9
20260502213047 68 82 0.0 1.0 0.00 0.04 0.01 37 1014.9
20260502212546 68 82 0.0 0.0 0.00 0.04 0.01 42 1014.8
20260502212046 68 82 0.0 1.0 0.00 0.04 0.01 39 1014.7
20260502211547 68 82 0.0 1.0 0.00 0.04 0.01 37 1014.7
20260502211021 68 82 0.0 0.0 0.00 0.04 0.01 39 1014.8
20260502210518 68 82 0.0 0.0 0.00 0.04 0.01 39 1014.9
20260502210014 68 82 0.0 1.0 0.00 0.04 0.01 40 1014.9
20260502205513 68 82 0.0 1.0 0.00 0.04 0.01 35 1015.0
20260502204955 68 82 0.0 1.0 0.00 0.04 0.01 36 1014.9
20260502204450 68 83 0.0 2.0 0.00 0.04 0.01 40 1015.1
20260502203941 68 84 0.0 2.0 0.00 0.04 0.01 35 1015.0
20260502203439 68 84 0.0 1.0 0.00 0.04 0.01 36 1015.0
20260502202911 68 91 0.0 1.0 0.00 0.04 0.01 36 1015.1
20260502202408 68 13 0.0 2.0 0.00 0.04 0.01 33 1015.1
20260502201840 68 13 0.0 1.0 0.00 0.04 0.01 33 1015.1
20260502201336 68 11 0.0 4.0 0.00 0.04 0.01 36 1015.2
20260502200823 68 11 1.0 8.0 0.00 0.04 0.01 32 1015.2
20260502200318 68 171 1.0 8.0 0.00 0.04 0.01 33 1015.0
20260502195754 69 71 0.0 5.0 0.00 0.04 0.01 30 1015.0
20260502194737 69 118 0.0 2.0 0.00 0.04 0.01 33 1015.2
20260502194237 69 116 0.0 2.0 0.00 0.04 0.01 37 1015.2
20260502193154 69 0 0.0 5.0 0.00 0.04 0.01 37 1015.1
20260502192628 69 344 1.0 5.0 0.00 0.04 0.01 37 1015.1
20260502192101 69 86 0.0 4.0 0.00 0.04 0.01 37 1015.1
20260502191600 69 95 0.0 4.0 0.00 0.04 0.01 39 1015.1
20260502185515 68 188 1.0 5.0 0.00 0.04 0.01 39 1015.3
20260502185012 68 158 0.0 7.0 0.00 0.04 0.01 36 1015.3
20260502183947 68 207 1.0 4.0 0.00 0.04 0.01 35 1015.5
20260502183359 68 25 0.0 4.0 0.00 0.04 0.01 33 1015.5
20260502181827 68 11 0.0 5.0 0.00 0.04 0.01 36 1015.8
20260502180249 68 346 0.0 6.0 0.00 0.04 0.01 37 1015.8
20260502170113 65 78 1.0 5.0 0.00 0.04 0.01 43 1016.2
20260502164036 64 138 1.0 6.0 0.00 0.04 0.01 49 1016.2
20260502163536 63 320 1.0 5.0 0.00 0.04 0.01 46 1016.3
20260502163021 62 151 1.0 5.0 0.00 0.04 0.01 51 1016.3
20260502162506 62 116 0.0 2.0 0.00 0.04 0.01 54 1016.4
20260502162008 62 112 0.0 5.0 0.00 0.04 0.01 55 1016.4
20260502161505 62 113 1.0 5.0 0.00 0.04 0.01 53 1016.4
20260502161003 61 169 1.0 4.0 0.00 0.04 0.01 56 1016.4
20260502152211 60 157 0.0 4.0 0.00 0.04 0.01 63 1016.1
20260502151713 59 171 0.0 5.0 0.00 0.04 0.01 61 1015.9
20260502151146 59 159 0.0 5.0 0.00 0.04 0.01 69 1015.9
20260502150627 58 161 0.0 0.0 0.00 0.04 0.01 66 1015.9
20260502150128 58 161 0.0 0.0 0.00 0.04 0.01 66 1015.8
20260502123430 52 162 0.0 0.0 0.00 0.04 0.01 93 1014.4
20260502122926 51 162 0.0 0.0 0.00 0.04 0.01 93 1014.3
20260502121859 51 162 0.0 0.0 0.00 0.04 0.01 94 1014.3
20260502121331 51 162 0.0 0.0 0.00 0.04 0.01 94 1014.2
20260502120829 51 162 0.0 0.0 0.00 0.04 0.01 95 1014.1
20260502120326 51 162 0.0 0.0 0.00 0.04 0.01 95 1014.0
20260502115322 51 162 0.0 0.0 0.00 0.04 0.01 95 1013.8
20260502114756 51 162 0.0 0.0 0.00 0.04 0.01 95 1013.7
20260502114254 51 162 0.0 0.0 0.00 0.04 0.01 95 1013.6
20260502113730 51 162 0.0 0.0 0.00 0.04 0.01 96 1013.7
20260502113228 51 162 0.0 0.0 0.00 0.04 0.01 96 1013.6
20260502112730 51 162 0.0 0.0 0.00 0.04 0.01 96 1013.7
20260502112210 51 162 0.0 0.0 0.00 0.04 0.01 96 1013.6
20260502111628 51 162 0.0 0.0 0.00 0.04 0.01 95 1013.7
20260502111130 51 162 0.0 0.0 0.00 0.04 0.01 95 1013.9
20260502110602 51 162 0.0 0.0 0.00 0.04 0.01 95 1013.7
20260502110101 52 162 0.0 0.0 0.00 0.04 0.01 96 1013.6
20260502105605 52 162 0.0 0.0 0.00 0.04 0.01 96 1013.8
20260502105057 52 162 0.0 0.0 0.00 0.04 0.01 96 1013.4
20260502104601 52 162 0.0 0.0 0.00 0.04 0.01 96 1013.5
20260502104032 52 162 0.0 0.0 0.00 0.04 0.01 96 1013.5
20260502103506 52 162 0.0 0.0 0.00 0.04 0.01 96 1012.7
20260502102937 52 162 0.0 0.0 0.00 0.04 0.01 96 1013.6
20260502102436 52 162 0.0 0.0 0.00 0.04 0.01 96 1013.6
20260502101931 52 162 0.0 0.0 0.00 0.04 0.01 96 1013.3
20260502100854 52 162 0.0 0.0 0.00 0.04 0.01 96 1013.7
20260502100352 52 162 0.0 0.0 0.00 0.04 0.01 96 1013.8
20260502091208 53 162 0.0 0.0 0.01 0.04 0.01 96 1013.2
20260502090139 53 162 0.0 0.0 0.01 0.04 0.01 96 1013.7
20260502071240 56 162 0.0 0.0 0.00 0.03 0.00 98 1013.6
20260502070717 56 162 0.0 0.0 0.00 0.03 0.00 98 1013.4
20260502070215 56 162 0.0 0.0 0.00 0.03 0.00 98 1013.6
20260502065653 56 162 0.0 0.0 0.00 0.03 0.00 98 1013.9
20260502065135 56 162 0.0 0.0 0.00 0.03 0.00 98 1013.9
20260502064630 57 162 0.0 0.0 0.00 0.03 0.00 98 1013.9
20260502064118 57 162 0.0 0.0 0.00 0.03 0.00 98 1014.1
20260502063551 57 162 0.0 0.0 0.00 0.03 0.00 98 1014.1
20260502063049 57 162 0.0 0.0 0.00 0.03 0.00 98 1014.1
20260502062547 57 162 0.0 0.0 0.00 0.03 0.00 98 1014.0
20260502062029 57 162 0.0 0.0 0.00 0.03 0.00 98 1013.8
20260502061018 57 162 0.0 0.0 0.00 0.03 0.00 98 1014.0
20260502060503 57 162 0.0 0.0 0.00 0.03 0.00 98 1014.0
20260502055949 57 162 0.0 0.0 0.00 0.03 0.00 98 1013.9
20260502055422 57 162 0.0 0.0 0.00 0.03 0.00 98 1013.8
20260502054922 57 162 0.0 0.0 0.00 0.03 0.00 98 1013.8
20260502054421 57 162 0.0 0.0 0.00 0.03 0.00 98 1013.8
20260502053920 57 162 0.0 0.0 0.00 0.03 0.00 98 1013.5
20260502053413 57 162 0.0 0.0 0.00 0.03 0.00 98 1013.6
20260502052910 57 162 0.0 0.0 0.00 0.03 0.00 98 1013.7
20260502052414 57 162 0.0 0.0 0.00 0.03 0.00 98 1013.9
20260502051844 57 162 0.0 0.0 0.00 0.03 0.00 98 1013.7
20260502051320 57 162 0.0 0.0 0.00 0.03 0.00 98 1013.7
20260502050240 57 162 0.0 0.0 0.00 0.03 0.00 98 1013.8
20260502045738 57 162 0.0 0.0 0.00 0.03 0.03 98 1013.7
20260502045226 57 162 0.0 0.0 0.00 0.03 0.03 98 1014.0
20260502044701 57 162 0.0 0.0 0.00 0.03 0.03 98 1013.8
20260502044144 57 162 0.0 0.0 0.00 0.03 0.03 98 1013.9
20260502043645 57 162 0.0 0.0 0.00 0.03 0.03 98 1013.8
20260502043136 57 162 0.0 0.0 0.00 0.03 0.03 98 1013.6
20260502042634 57 162 0.0 0.0 0.00 0.03 0.03 97 1013.6
20260502042136 57 162 0.0 0.0 0.00 0.03 0.03 98 1013.5
20260502041620 57 162 0.0 0.0 0.00 0.03 0.03 97 1013.6
20260502041117 57 162 0.0 0.0 0.00 0.03 0.03 97 1013.5
20260502040100 57 162 0.0 0.0 0.00 0.03 0.03 97 1013.4
20260502035015 57 162 0.0 0.0 0.00 0.03 0.03 97 1013.3
20260502034010 57 162 0.0 0.0 0.00 0.03 0.03 97 1013.4
20260502033509 57 162 0.0 0.0 0.00 0.03 0.03 97 1013.5
20260502033019 57 162 0.0 0.0 0.00 0.03 0.03 97 1013.6
20260502032433 57 162 0.0 0.0 0.00 0.03 0.03 97 1013.7
20260502031908 57 162 0.0 0.0 0.00 0.03 0.03 97 1013.8
20260502031406 57 162 0.0 0.0 0.00 0.03 0.03 96 1013.9
20260502030839 58 162 0.0 0.0 0.00 0.03 0.03 96 1013.9
20260502025820 58 162 0.0 0.0 0.01 0.03 0.03 96 1014.0
20260502024753 58 162 0.0 0.0 0.01 0.03 0.03 96 1014.0
20260502024244 58 162 0.0 0.0 0.01 0.03 0.03 96 1014.0
20260502023151 58 162 0.0 0.0 0.01 0.03 0.03 96 1014.0
20260502022641 58 162 0.0 0.0 0.02 0.03 0.03 95 1014.0
20260502022114 58 162 0.0 0.0 0.02 0.03 0.03 95 1014.3